Regional Weather Roundup
Issued by NWS Wakefield, VA

Home | Current Version | Previous Version | Graphics & Text | Print | Product List | Glossary On
Versions: 1 2 3 4 5 6 7 8 9 10 11 12 13 14 15 16 17 18 19 20 21 22 23 24 25 26 27 28 29 30 31 32 33 34 35 36 37 38 39 40 41 42 43 44 45 46 47 48 49 50
000
ASUS41 KAKQ 280815
RWRAKQ

REGIONAL WEATHER ROUNDUP
NATIONAL WEATHER SERVICE WAKEFIELD VA
400 AM EDT THU MAY 28 2015

Note: "fair" indicates few or no clouds below 12,000 feet with no
significant weather and/or obstructions to visibility. * = Denotes
station may not report precipitation (e.g., rain,snow,etc.),
thunder or fog.

VAZ042-051-052>054-056-280900-
NORTHERN VIRGINIA

CITY           SKY/WX    TMP DP  RH WIND       PRES   REMARKS
WASH NATIONAL  PTCLDY    75  69  81 S8        30.12S
DULLES         CLOUDY    69  68  96 S6        30.12S
FORT BELVOIR   CLEAR     66  65  96 SE2       30.12S
QUANTICO       CLEAR     74  66  76 SW5       30.13S
FREDERICKSBRG* CLEAR     73  67  81 SW6       30.12S
STAFFORD*      PTCLDY    70  64  82 CALM      30.17S
WARRENTON      CLEAR     69  67  92 SW3       30.12F
CULPEPER*      PTCLDY    64  63  98 CALM      30.13F
MANASSAS*      PTCLDY    66  66 100 CALM      30.12S
LEESBURG*      PTCLDY    70  70 100 CALM      30.12F
WINCHESTER     PTCLDY    70  61  73 W3        30.14R
FRONT ROYAL*   FAIR      66  63  88 S3        30.13S
LURAY*         FAIR      64  64 100 CALM      30.16S
$$

VAZ048-049-060>072-079>083-280900-
CENTRAL AND SOUTH CENTRAL VIRGINIA

CITY           SKY/WX    TMP DP  RH WIND       PRES   REMARKS
RICHMOND       MOCLDY    71  68  90 S6        30.16S
CHESTERFIELD*  NOT AVBL
PETERSBURG*    CLOUDY    71  71 100 S3        30.17F
HANOVER        CLEAR     72  67  84 S8        30.16F
TAPPAHANNOCK*  CLEAR     71  65  81 S5        30.17S
QUINTON*       CLOUDY    71  68  92 S6        30.17S
CHARLOTTSVILLE PTCLDY    67  64  90 S6        30.14F
GORDONSVILLE*  FAIR      65  64  94 CALM      30.13F
ORANGE*        PTCLDY    68  64  88 S6        30.15S
LOUISA*        PTCLDY    70  64  83 S3        30.13F
BUMPASS*       FAIR      68  65  90 S5        30.14F
FARMVILLE*     CLEAR     67  67 100 S5        30.14F
CREWE*         FAIR      69  67  93 CALM      30.16F
FORT PICKETT*  FAIR      70  68  94 SW5       30.17F
CHASE CITY*    FAIR      70  70 100 CALM      30.17F
CLARKSVILLE*   FAIR      68  66  94 SW6       30.17S
SOUTH HILL*    MOCLDY    69  67  94 S6        30.23F
LAWRENCEVILLE* FAIR      70  70 100 CALM      30.17F
EMPORIA*       CLOUDY    68  68 100 CALM      30.19F
$$

VAZ088>098-280900-
SOUTHEAST VIRGINIA

CITY           SKY/WX    TMP DP  RH WIND       PRES   REMARKS
NORFOLK        MOCLDY    71  65  81 S12       30.19S
VIRGINIA BEACH MOCLDY    71  65  81 S6        30.19S
NORFOLK NAVAL  CLOUDY    76  66  71 S7        30.20S
WEST POINT*    MOCLDY    74  69  86 S6        30.19S
SALUDA*        FAIR      70  68  93 S6        30.16S
NEWPORT NEWS   CLOUDY    76  67  73 SW10      30.18F
LANGLEY AFB    CLOUDY    72  67  86 S12       30.17F
FORT EUSTIS    CLOUDY    72  72 100 S6        30.16F
WILLIAMSBURG*  CLOUDY    73  72  94 S5        30.18F
HR EXEC AP*    FAIR      70  64  83 S5        30.21F
FRANKLIN*      CLOUDY    70  67  88 S6        30.19F
WAKEFIELD      LGT RAIN  71  68  90 S5        30.18F
$$

VAZ020-022-025-037-045-280900-
WEST CENTRAL AND SOUTHWEST VIRGINIA

CITY           SKY/WX    TMP DP  RH WIND       PRES   REMARKS
STAUNTON*      CLEAR     64  62  93 CALM      30.19S
WAYNESBORO*    FAIR      63  61  93 CALM      30.19S
HOT SPRINGS VA PTCLDY    62  58  86 W9        30.27F
LYNCHBURG      CLEAR     64  64 100 SW5       30.18F
DANVILLE       PTCLDY    66  64  93 SW3       30.18F
SOUTH BOSTON*  FAIR      65  64  95 MISG      30.17F
MARTINSVILLE   PTCLDY    60  60 100 CALM      30.22S
ROANOKE        PTCLDY    66  63  90 CALM      30.20F
BLACKSBURG     PTCLDY    62  60  96 CALM      30.26F
DUBLIN*        PTCLDY    61  61 100 CALM      30.24F
MARION*        CLOUDY    59  58  95 CALM      30.28F FOG
HILLSVILLE*    PTCLDY    63  62  95 S5        30.25F
RICHLANDS*     CLOUDY    64  58  83 CALM      30.25S
WISE*          CLOUDY    66  55  68 W6        30.26S
ABINGDON*      CLOUDY    66  62  86 N3        30.23S
$$

MDZ021>025-VAZ099-100-280900-
SOUTHERN MARYLAND AND THE DELMARVA PENINSULA

CITY           SKY/WX    TMP DP  RH WIND       PRES   REMARKS
PATUXENT RIVER PTCLDY    72  66  81 SW13      30.14S
BAY BRIDGE APT   N/A    N/A N/A N/A S8        30.12F
LEONARDTOWN    PTCLDY    70  64  83 S5        30.16S
DOVER          MOCLDY    71  71 100 S7        30.10F
GEORGETOWN     PTCLDY    69  66  90 S8        30.16S
EASTON         PTCLDY    73  72  95 SW7       30.17S
CAMBRIDGE      PTCLDY    72  66  83 S5        30.14F
SALISBURY      PTCLDY    67  65  93 S5        30.16S
OCEAN CITY     MOCLDY    68  64  87 S8        30.17S
WALLOPS ISLAND PTCLDY    65  65 100 S7        30.18F
ACCOMACK*      PTCLDY    68  68 100 S6        30.17F
$$

NCZ012>017-030>032-280900-
NORTH CENTRAL AND EASTERN NORTH CAROLINA

CITY           SKY/WX    TMP DP  RH WIND       PRES   REMARKS
ROANOKE RAPIDS FAIR      68  68 100 CALM      30.19S
RALEIGH        PTCLDY    69  67  93 SW8       30.19F
ELIZABETH CITY CLOUDY    70  65  84 S7        30.21S
AHOSKIE*       MOCLDY    68  65  90 S3        30.19F
EDENTON*       CLOUDY    70  65  85 S7        30.22R
CURRITUCK*     CLOUDY    71  63  76 S3        30.22S
KILL DEVIL HLS PTCLDY    70  64  80 SW3       30.22R
MANTEO         PTCLDY    71  65  79 SW12      30.23R
CAPE HATTERAS  CLEAR     71  61  70 SW7       30.23F
TARBORO*       FAIR      69  66  91 CALM      30.20F
GOLDSBORO      MOCLDY    69  67  92 CALM      30.18F
WASHINGTON     CLEAR     68  64  88 S3        30.21F
GREENVILLE     PTCLDY    70  68  94 SW5       30.21F
NEW BERN       MOCLDY    67  63  87 CALM      30.23S
WILMINGTON     CLEAR     65  63  93 CALM      30.20F
$$

VAZ048-280900-
ELSEWHERE

CITY           SKY/WX    TMP DP  RH WIND       PRES   REMARKS
HARRISBURG PA  MOCLDY    67  64  90 CALM      30.11S
BALTIMORE      PTCLDY    69  67  93 CALM      30.11S
ANNAPOLIS      CLEAR     72  68  87 S3        30.11S
ANDREWS AFB    CLEAR     71  68  91 S8        30.12S
PHILADELPHIA   PTCLDY    71  67  87 S8        30.13S
HENDERSON NC   MOCLDY    68  66  92 S5        30.19S FOG
GREENSBORO     PTCLDY    68  67  96 SW5       30.19F
ROCKY MOUNT    CLEAR     68  67  96 CALM      30.20F FOG
$$

VAZ100-280900-
MARINE

STATION/POSITION TIME  TEMP    WIND        PRES    WAVE   SWELL
                       AIR SEA DIR/SP/G            HT/PER HT/PER
                 (UTC) (F)     (DEG/KT/KT) (MB)    (FT/S) (FT/S)
BRANDYWINE LGT   0700   69 67  200/ 13/ 14 1020.8F
CAPE MAY NJ      0700   65 70  160/  7/ 11 1020.7F
LEWES DE         0700   71 60  210/  6/ 10 1020.8F
15NM E FENWICK I 0750   64 62              1021.3S   4/ 5
OCEAN-CITY-INLET 0700   63 64  220/ 10/ 11 1021.3F
WACHAPREAGUE VA  0700   70 75  230/  5/  7 1022.1S
THOMAS POINT MD  0800   70 69  170/ 14/ 14 1020.5S
GOOSES REEF MD   0800   71 69  200/  8/  8 1021.5R   1/ 2
COVE POINT MD    0700   72     220/ 11/ 13 1021.4F
SOLOMONS ISLAND  0700      71                N/A
BISHOPS HEAD MD  0700   72 73  200/ 13/ 17 1020.8F
PINEY POINT MD   0700          240/ 14/ 16   N/A
CAMBRIDGE MD     0700   73 73  190/  5/  9 1020.6S
LEWISETTA VA     0700   73 76              1020.9F
RAPPAHANNOCK LGT 0700          190/ 12/ 14 1022.3F
STINGRAY PT      0800   73 72  210/ 10/ 12 1021.1F   1/ 3
YORK RVR RNG VA  0700   73     220/ 11/ 13 1021.3F
YORKTOWN VA      0700   73 73  210/  9/ 12 1021.7F
JAMESTOWN VA     0800   71 76  210/  6/ 10 1020.7F
DOMINION TERM VA 0700   72     220/ 12/ 14 1022.3F
KIPTOPEKE VA     0700      78  210/  9/ 11   N/A
CHES BAY BRIDGE  0700   72 71  200/ 11/ 15 1022.0S
CAPE HENRY VA    0700   71     200/  7/ 11 1021.3R
CHESAPEAKE LGHT  0700   66     200/ 19/ 20 1023.0F
WILLOUBY STN VA  0700   72     210/ 12/ 14 1023.0S
CAPE HENRY BUOY  0728      62                N/A     2/ 8
1ST LANDING BUOY 0800      71              1021.8F
CAPE CHARLES BUO 0726      68                N/A     2/ 5   2/ 7
OFFSHORE WE BUOY 0711      65                N/A     3/ 6   2/12
64NM E OF VA BCH 0750   66 64  170/ 10/ 10 1022.9F   3/ 6   3/ 6
DUCK PIER NC     0700   72 54  200/ 12/ 14 1022.2S
44100 DUCK FRF   0724      64                N/A     2/ 7
44056 DUCK FRF   0711      58                N/A     2/ 6
OREGON INLET NC  0700   72 76  170/ 10/ 12 1023.6F
HATTERAS NC      0700   72 75  190/  3/  8 1023.4F
DIAMOND SHLS NC  0750   74 77  190/  8/ 10 1023.9F   3/ 7   3/ 7
CAPE LOOKOUT NC  0800   73     150/  6/  6 1023.1F
$$


USA.gov is the U.S. government's official web portal to all federal, state and local government web resources and services.